{"data":{"norad_id":43797,"epoch":"2026-09-19T07:55:57.788544Z","epoch_age_seconds":115383,"freshness":"FRESH","line1":"1 43797U 18099AR  26262.33052996  .00012966  00000+0  21923-3 0  9995","line2":"2 43797  96.9249 281.9488 0004769 151.7601 208.3912 15.51697827436445","mean_motion":15.51697827,"eccentricity":0.0004769,"inclination_deg":96.9249,"raan_deg":281.9488,"arg_perigee_deg":151.7601,"mean_anomaly_deg":208.3912,"bstar":0.00021923,"rev_number":43644,"period_min":92.801573537294,"perigee_km":408.53055177378,"apogee_km":415.00676379017,"semimajor_km":6789.905657782,"source":"CELESTRAK","updated_at":"2026-09-20T09:00:34.709462Z"}}